ARIANE 2 DEB, 27039

Orbit data source: Space-Track

ARIANE 2 DEB, 27039 is space debris in HEO originally from a launch on Fri, 27 Jan 1989 UTC launched from the French Guiana (FRGUI). Debris objects in space refer to the collection of defunct objects orbiting the Earth. Examples of debris include non-operational satellites, rocket bodies, and fragments generated from explosions, collisions, or faulty payload assembly.

Loading next visibility...
Identifier
27039, 1989-006U
Orbit
HEO
Country
Flag of FRFR
Related business
Manufacturer
EADS/LV
Mission
Spacecraft
Bus & Motor
Unknown
Mass
Unknown
Launch date (UTC)
1989-01-27 (37 years ago)
Launch vehicle
Unknown
Launch site
French Guiana (FRGUI)
Object type
Payload
Rocket body
Debris
Shape & HBR
Unknown shape, 0.6 m
Radar Cross Section
Medium (>0.1 m² and <1 m²)

Expand to show TLE details & history
Last TLE update: 4 days ago

TLE from 4 days ago
0 ARIANE 2 DEB
1 27039U 89006U   25285.22311281 -.00000167  00000-0  36781-3 0  9999
2 27039   7.9382 252.8452 7151969  91.9156   4.5047  2.26217636200545
Epoch: 2025-10-12T05:21Z
TLE epoch observation values (Epoch: 2025-10-12T05:21:16.946Z)
Latitude
6.30562°
Longitude
-80.73298°
Altitude
1,179.332 km
Speed
9.445 km/s
True Right ascension
01h 22m 31s
True Declination
6° 16' 13"
Sunlit
Object was in full shadow at epoch
Visualization orbit readout
Latitude
Unknown
Longitude
Unknown
Altitude
Unknown
Speed
Unknown
Apparent Right ascension
Unknown
Apparent Declination
Unknown
Sunlit
N/A
Visualization observer readout
Local Sidereal Time
22:21:50
Azimuth
Unknown
Elevation
Unknown
Doppler factor
Unknown
Orbital elements
Apogee altitude
35,674.092 km
Perigee altitude
604.505 km
Semi-major axis
24,517.436 km
Eccentricity
0.7152
Inclination
7.9382°
RAAN
252.8452°
Arg. of periapsis
91.9156°
True anomaly
36.61462°
Mean anomaly
4.5047°
Eccentric anomaly
15.35682°
Mean motion
0.56537 °/min
Orbital period
636.75 mins
BSTAR
0.00036781
Loading maneuver chart data...
Computing Atmospheric mass density...
Loading historical data...
Loading historical data...
Loading historical data...
Loading historical data...
Loading historical data...
Loading historical data...
Loading historical data...

Documentation

Showing up to 5 results
|